Location: Cointrin
(46.2167°N, 6.1167°E)
Time: 10:45:55
(UTC+00:00)

AO-85 - Pass Details

Date: 15 December 2023
Orbit: 516 x 753 km, 64.8° (Epoch: 04 January)

Event Time Altitude Azimuth Distance (km) Brightness Sun altitude
Rises 16:53:06 0° 327° (NNW) 2,875 ? -10.5°
Reaches altitude 10° 16:55:25 10° 335° (NNW) 2,005 ? -10.8°
Maximum altitude 16:59:43 40° 46° (NE) 964 ? -11.5°
Drops below altitude 10° 17:04:17 10° 116° (ESE) 2,127 ? -12.3°
Enters shadow 17:06:08 - 122° (ESE) 2,815 ? -12.6°
